Location: Baix
(44.7118°N, 4.7648°E)
Time: 23:17:16
(UTC+00:00)

Tiros 1 - All Passes

Search period start: 25 November 2020 00:00
Search period end: 05 December 2020 00:00
Orbit: 630 x 664 km, 48.4° (Epoch: 25 November)

Date Brightness Start Highest point End Pass type
(mag) Time Alt. Az. Time Alt. Az. Time Alt. Az.
25 Nov - 15:11:14 10° S 15:14:48 21° SE 15:18:24 10° E daylight
25 Nov - 16:51:43 10° WSW 16:56:31 77° SSE 17:01:18 10° ENE visible
25 Nov - 18:34:13 10° W 18:38:56 56° N 18:43:37 10° ENE visible
25 Nov - 20:16:47 10° WNW 20:21:32 67° NNE 20:26:14 10° E visible
25 Nov - 21:59:09 10° WNW 22:03:41 46° SSW 22:08:10 10° SE night (unlit)
26 Nov - 15:36:00 10° SW 15:40:30 41° SE 15:44:59 10° ENE daylight
26 Nov - 17:17:46 10° WSW 17:22:35 72° NNW 17:27:21 10° ENE visible
26 Nov - 19:00:28 10° WNW 19:05:10 55° N 19:09:50 10° E visible
26 Nov - 20:42:51 10° WNW 20:47:38 85° SSW 20:52:20 10° ESE visible
26 Nov - 22:25:37 10° W 22:29:24 24° SW 22:33:08 10° SSE night (unlit)
27 Nov - 14:21:17 10° S 14:24:42 20° SE 14:28:08 10° E daylight
27 Nov - 16:01:34 10° WSW 16:06:22 73° SSE 16:11:09 10° ENE daylight
27 Nov - 17:44:01 10° W 17:48:45 57° N 17:53:27 10° ENE visible
27 Nov - 19:26:36 10° WNW 19:31:22 65° NNE 19:36:05 10° E visible
27 Nov - 21:08:58 10° WNW 21:13:33 49° SSW 21:18:05 10° SE night (unlit)
27 Nov - 22:53:32 10° WSW 22:54:54 11° SW 22:56:16 10° SSW night (unlit)
28 Nov - 14:45:56 10° SSW 14:50:22 38° SE 14:54:48 10° ENE daylight
28 Nov - 16:27:35 10° WSW 16:32:24 75° NNW 16:37:12 10° ENE visible
28 Nov - 18:10:16 10° WNW 18:14:59 54° N 18:19:40 10° E visible
28 Nov - 19:52:41 10° WNW 19:57:29 89° SSW 20:02:12 10° ESE visible
28 Nov - 21:35:22 10° W 21:39:17 26° SW 21:43:09 10° SSE night (unlit)
29 Nov - 13:31:21 10° S 13:34:36 18° SE 13:37:50 10° E daylight
29 Nov - 15:11:26 10° SW 15:16:13 69° SSE 15:20:59 10° ENE daylight
29 Nov - 16:53:49 10° W 16:58:34 58° N 17:03:18 10° ENE visible
29 Nov - 18:36:26 10° WNW 18:41:12 63° NNE 18:45:55 10° E visible
29 Nov - 20:18:47 10° WNW 20:23:25 53° SSW 20:28:00 10° SE visible
29 Nov - 22:02:53 10° WSW 22:04:49 12° SW 22:06:44 10° SSW night (unlit)
30 Nov - 13:55:51 10° SSW 14:00:13 35° SE 14:04:36 10° ENE daylight
30 Nov - 15:37:24 10° WSW 15:42:14 78° NNW 15:47:03 10° ENE daylight
30 Nov - 17:20:05 10° WNW 17:24:48 54° N 17:29:30 10° E visible
30 Nov - 19:02:30 10° WNW 19:07:19 88° NNE 19:12:04 10° ESE visible
30 Nov - 20:45:08 10° W 20:49:10 28° SW 20:53:10 10° SSE visible
01 Dec - 12:41:27 10° S 12:44:29 17° SE 12:47:32 10° E daylight
01 Dec - 14:21:18 10° SW 14:26:03 65° SSE 14:30:49 10° ENE daylight
01 Dec - 16:03:38 10° W 16:08:23 59° N 16:13:08 10° ENE daylight
01 Dec - 17:46:15 10° WNW 17:51:01 62° N 17:55:44 10° E visible
01 Dec - 19:28:36 10° WNW 19:33:17 57° SSW 19:37:55 10° SE visible
01 Dec - 21:12:23 10° WSW 21:14:44 14° SW 21:17:02 10° SSW night (unlit)
02 Dec - 13:05:48 10° SSW 13:10:05 33° SE 13:14:24 10° E daylight
02 Dec - 14:47:14 10° WSW 14:52:03 81° NNW 14:56:53 10° ENE daylight
02 Dec - 16:29:53 10° WNW 16:34:37 54° N 16:39:19 10° E visible
02 Dec - 18:12:20 10° WNW 18:17:09 84° NNE 18:21:55 10° ESE visible
02 Dec - 19:54:54 10° W 19:59:03 30° SW 20:03:10 10° SSE visible
03 Dec - 11:51:35 10° S 11:54:23 15° SE 11:57:11 10° E daylight
03 Dec - 13:31:10 10° SW 13:35:54 61° SSE 13:40:39 10° ENE daylight
03 Dec - 15:13:26 10° W 15:18:12 60° N 15:22:58 10° ENE daylight
03 Dec - 16:56:05 10° WNW 17:00:50 60° N 17:05:34 10° E visible
03 Dec - 18:38:24 10° WNW 18:43:08 60° SSW 18:47:48 10° SE visible
03 Dec - 20:21:58 10° W 20:24:38 15° SW 20:27:15 10° SSW visible
04 Dec - 12:15:45 10° SSW 12:19:58 31° SE 12:24:11 10° E daylight
04 Dec - 13:57:03 10° WSW 14:01:53 84° NNW 14:06:43 10° ENE daylight
04 Dec - 15:39:41 10° WNW 15:44:26 54° N 15:49:09 10° ENE daylight
04 Dec - 17:22:09 10° WNW 17:26:59 81° NNE 17:31:46 10° ESE visible
04 Dec - 19:04:40 10° W 19:08:55 32° SW 19:13:08 10° SSE visible
